Location: Iowa City
(41.6610°N, 91.5300°W)
Time: 08:24:12
(UTC-05:00)

ISS - Visible Passes

Search period start: 31 July 2015 00:00
Search period end: 10 August 2015 00:00
Orbit: 401 x 403 km, 51.6° (Epoch: 31 July)

Date Brightness Start Highest point End Pass type
(mag) Time Alt. Az. Time Alt. Az. Time Alt. Az.
31 Jul0.500:36:55NE00:36:55NE00:29:31WNWvisible
31 Jul -0.2 02:09:38 14° NNW 02:10:42 16° N 02:12:47 10° NE visible
31 Jul -2.0 03:44:38 10° NW 03:47:46 41° NNE 03:50:53 10° ESE visible
31 Jul -2.2 05:21:22 10° WNW 05:24:05 24° SW 05:26:45 10° S visible
31 Jul -3.5 22:00:02 10° SW 22:03:18 87° SE 22:06:34 10° NE visible
31 Jul -0.6 23:37:32 10° WNW 23:40:05 21° NNW 23:41:43 15° NNE visible
01 Aug -1.1 02:55:02 26° NE 02:55:02 26° NE 02:57:31 10° E visible
01 Aug -3.2 04:28:03 10° WNW 04:31:13 47° SW 04:34:21 10° SE visible
01 Aug -3.0 21:07:15 10° SSW 21:10:21 43° SE 21:13:29 10° ENE visible
01 Aug -1.2 22:44:00 10° W 22:46:53 28° NNW 22:49:46 10° NE visible
02 Aug -0.1 00:22:12 10° NW 00:24:01 14° N 00:24:01 14° N visible
02 Aug -2.1 21:50:37 10° WSW 21:53:45 43° NNW 21:56:54 10° NE visible
02 Aug -0.2 23:28:41 10° NW 23:30:49 16° N 23:32:56 10° NNE visible
03 Aug -3.2 20:57:27 10° WSW 21:00:42 79° NW 21:03:58 10° NE visible
03 Aug -0.5 22:35:05 10° WNW 22:37:33 19° NNW 22:39:59 10° NNE visible
04 Aug -0.1 00:12:58 10° NNW 00:14:23 14° N 00:14:23 14° N visible
04 Aug -1.0 21:41:31 10° W 21:44:18 25° NNW 21:47:06 10° NE visible
04 Aug -0.3 23:19:42 10° NW 23:21:34 14° N 23:23:07 11° NNE visible
05 Aug -1.7 20:48:04 10° W 20:51:08 38° NNW 20:54:13 10° NE visible
05 Aug -0.3 22:26:11 10° NW 22:28:14 15° N 22:30:16 10° NNE visible
06 Aug -0.1 00:03:21 10° NNW 00:04:24 14° NNW 00:04:24 14° NNW visible
06 Aug -0.5 21:32:34 10° WNW 21:34:56 18° NNW 21:37:17 10° NNE visible
06 Aug -0.5 23:10:19 10° NNW 23:12:17 15° N 23:13:05 14° NNE visible
07 Aug -0.4 22:17:04 10° NW 22:18:56 14° N 22:20:48 10° NE visible
07 Aug -0.1 23:53:32 10° NW 23:54:21 15° NNW 23:54:21 15° NNW visible
08 Aug -0.5 21:23:36 10° NW 21:25:35 15° N 21:27:33 10° NNE visible
08 Aug -0.8 23:00:36 10° NNW 23:02:56 18° NNE 23:03:02 18° NNE visible
09 Aug -0.6 22:07:34 10° NNW 22:09:36 15° N 22:11:38 10° NE visible
09 Aug -0.1 23:43:38 10° NW 23:44:17 15° NW 23:44:17 15° NW visible
